Lid_Strength_Index
1 1 1 0 -0 -0 -1 -1 -1 -1 -1 -1 -1 -2 -1 -0 2 6 9 6 3 0 1 7 6 6 6 7 6 7 10 12 10 11 10 9 10 8 7 6 6 5 5 4 2
2 2 1 1 0 -0 -0 -1 -1 -1 -1 -1 -1 -1 -1 -1 4 7 4 1 0 1 6 8 8 7 8 8 8 8 11 11 8 9 9 9 9 9 8 8 7 5 4 3 3
2 2 1 1 1 0 -0 -0 -1 -1 -1 -1 -1 -1 -1 1 6 5 1 1 1 2 4 7 7 7 9 9 9 9 10 9 9 8 8 9 9 9 9 9 8 7 5 4 4
2 2 1 1 1 0 0 -0 -0 -1 -1 -1 -1 -1 -1 3 12 3 -0 1 1 3 5 8 9 10 10 11 10 10 9 8 9 10 9 9 8 9 9 8 7 7 4 4 4
1 1 2 1 2 1 0 0 0 -0 -1 -1 -1 -1 2 6 6 2 -1 1 3 4 7 9 10 11 11 10 10 11 11 9 9 10 10 9 9 9 8 7 7 6 4 5 4
-0 1 1 2 2 2 1 1 0 -0 0 -0 -1 -1 3 9 2 2 2 2 3 4 6 8 10 10 11 10 11 10 10 11 10 10 10 10 10 9 9 7 8 5 5 4 4
-2 -1 -1 -0 1 1 1 1 0 0 0 0 -1 1 4 6 2 2 2 2 3 2 6 6 6 9 10 11 9 10 12 12 12 11 10 9 12 11 9 9 9 7 5 5 4
-2 -2 -2 -1 -1 -1 0 0 -0 -0 0 -0 -0 3 7 2 2 2 2 2 2 2 3 4 5 8 10 10 11 12 13 14 12 12 11 10 13 10 10 10 10 10 9 9 6
-2 -2 -1 -1 -1 -1 -1 -1 -1 -1 -1 -0 4 6 8 1 4 2 2 3 2 2 2 3 6 9 10 13 15 15 17 16 13 12 12 12 13 11 9 10 10 10 9 10 9
-2 -2 -1 -1 -1 -1 -1 -1 -1 -1 -0 0 2 7 7 7 3 2 2 2 4 4 5 6 8 11 13 15 19 17 17 16 15 13 14 14 13 12 10 10 10 10 10 10 9
-2 -1 -1 -1 -1 -1 -0 1 4 5 4 7 7 7 6 4 2 3 2 3 4 6 11 9 11 13 12 13 13 14 15 16 15 14 14 15 15 13 13 12 12 10 10 10 10
-2 -1 -1 -1 -1 -1 -0 4 4 3 8 4 4 5 3 4 7 5 2 7 8 10 9 11 16 12 10 11 13 14 15 16 14 14 15 16 16 14 13 13 12 12 12 11 11
-2 -2 -1 -1 -1 1 3 3 -0 1 8 7 5 6 5 4 8 7 4 6 9 11 11 13 12 10 10 11 13 15 16 16 16 14 16 17 18 17 14 13 13 13 14 14 14
-2 -2 -2 -1 2 3 4 -0 -0 1 12 10 9 6 5 5 9 4 4 6 9 11 10 11 9 10 12 13 13 15 13 13 14 16 20 17 21 17 15 13 14 14 14 14 13
-2 -2 -2 0 4 5 3 0 0 4 20 9 8 3 5 8 7 7 4 7 11 11 10 12 11 12 12 13 12 15 12 13 13 16 18 19 20 18 16 16 15 14 13 13 13
-2 -2 -1 2 3 3 1 1 3 13 19 12 8 10 10 9 9 6 7 5 7 10 10 11 8 9 10 9 11 11 13 13 14 16 22 19 20 20 18 16 15 13 13 13 13
-1 -1 1 1 4 1 1 4 13 19 12 13 12 11 11 12 11 10 10 11 13 15 15 12 12 10 9 11 9 11 14 19 20 21 23 19 19 18 16 15 14 13 13 12 13
-1 -1 0 1 0 2 4 11 18 18 15 10 10 10 12 12 12 12 11 13 10 12 14 16 17 11 9 11 12 12 13 17 22 22 21 18 19 18 15 13 12 12 12 12 12
-1 2 2 2 1 3 9 15 20 16 10 11 11 13 13 11 12 12 14 13 10 11 15 15 15 10 10 9 10 13 15 12 17 24 21 19 18 14 13 13 13 13 13 12 11
3 3 3 2 2 6 12 14 14 9 9 10 14 12 15 13 14 13 14 11 11 9 9 13 16 11 11 9 10 11 10 16 15 22 24 19 18 18 14 14 14 13 13 12 11
3 6 4 3 5 11 17 20 12 9 9 10 13 13 12 13 12 14 13 10 10 10 9 11 13 14 12 13 14 13 14 13 13 15 20 22 18 15 14 14 14 13 13 13 12
5 9 2 5 13 17 13 11 8 10 8 10 10 11 12 11 13 13 13 11 9 10 12 10 12 17 15 11 9 11 13 13 17 18 16 16 16 12 12 12 12 13 13 12 12
7 7 4 7 18 13 10 11 10 11 10 10 11 10 10 12 13 12 11 9 9 10 11 10 13 19 16 13 11 13 12 11 12 13 17 19 16 11 11 11 11 12 12 12 11
10 14 10 11 13 14 15 14 14 9 10 10 10 10 11 12 11 12 11 9 8 9 7 8 12 14 18 16 13 14 13 12 13 16 16 16 14 12 12 11 11 11 11 11 11
11 14 12 17 13 15 14 13 15 14 10 10 10 11 12 14 13 13 10 9 9 8 10 12 17 15 14 14 13 13 13 13 14 13 16 15 15 13 12 12 12 12 12 11 11
12 12 11 11 11 13 12 12 14 12 12 12 11 10 11 15 12 14 12 12 12 11 11 12 19 19 22 16 16 14 13 13 13 13 14 14 15 12 12 12 12 12 12 12 12
10 9 10 9 12 14 14 12 11 10 9 9 10 11 11 10 10 10 10 11 11 12 12 13 18 23 24 19 22 23 19 15 14 13 14 16 14 12 13 12 12 12 12 11 11